Le nostre stazioni meteo in Italia

Pubblicità
Il mio iltempo24.it
Ponza, Italia (16280): Temperatura & dewpoint: 19.05.2019 08:00:00 - 25.05.2019 08:00:00 (CEST)Ponza, Italia (16280): velocità del vento & gusts: 19.05.2019 08:00:00 - 25.05.2019 08:00:00 (CEST)Ponza, Italia (16280): direzione del vento: 19.05.2019 08:00:00 - 25.05.2019 08:00:00 (CEST)Ponza, Italia (16280): reduced air pressure: 19.05.2019 08:00:00 - 25.05.2019 08:00:00 (CEST)Ponza, Italia (16280): visibility: 19.05.2019 08:00:00 - 25.05.2019 08:00:00 (CEST)Ponza, Italia (16280): ore di luce: 19.05.2019 08:00:00 - 25.05.2019 08:00:00 (CEST)
Data & Tempo tt [°C] td [°C] ff [km/h] ff [kn] fx [km/h] fx [kn] dd ppp [hPa] vv [km] sd [min]
25.05.2019 08:00:00 - - - - - - - - - -
25.05.2019 07:00:00 16,0 15,0 15 8 23 13 E 1014,4 10 -
25.05.2019 06:00:00 - - - - - - - - - -
25.05.2019 05:00:00 15,6 14,8 9 5 - - ESE 1014,2 10 -
25.05.2019 04:00:00 15,8 15,0 9 5 - - E 1014,1 10 -
25.05.2019 03:00:00 15,6 14,8 8 4 - - E 1014,2 10 -
25.05.2019 02:00:00 15,8 15,0 8 4 - - SE 1014,4 10 -
25.05.2019 01:00:00 16,2 15,4 8 4 - - NE 1014,7 10 -
25.05.2019 00:00:00 16,4 15,6 5 3 - - E 1014,8 10 -
24.05.2019 23:00:00 16,8 15,8 8 4 - - E 1014,8 10 -
24.05.2019 22:00:00 17,2 16,1 9 5 - - SO 1014,8 10 -
24.05.2019 21:00:00 18,2 16,5 4 2 - - N 1014,1 10 -
24.05.2019 20:00:00 18,6 15,5 8 4 - - O 1014,1 10 36
24.05.2019 19:00:00 19,6 16,8 8 4 - - O 1014,1 10 60
24.05.2019 18:00:00 20,4 17,6 11 6 - - O 1014,6 10 -
24.05.2019 17:00:00 21,0 17,4 11 6 - - O 1014,5 10 60
24.05.2019 16:00:00 20,6 17,0 9 5 - - OSO 1015,0 10 60
24.05.2019 15:00:00 20,0 17,6 4 2 22 12 N 1015,4 10 60
24.05.2019 14:00:00 19,0 17,0 8 4 - - O 1015,7 10 48
24.05.2019 13:00:00 18,4 15,7 4 2 - - N 1015,8 8 48
24.05.2019 12:00:00 17,0 14,3 8 4 - - ESE 1015,9 7 60
24.05.2019 11:00:00 18,2 16,2 5 3 - - OSO 1015,7 4,0 12
24.05.2019 10:00:00 16,6 15,0 4 2 14 7 N 1015,8 7 48
24.05.2019 09:00:00 16,8 15,2 5 3 - - N 1015,8 10 12
24.05.2019 08:00:00 16,2 14,6 4 2 - - N 1015,6 10 36
24.05.2019 07:00:00 15,4 13,8 4 2 - - N 1015,7 10 36
24.05.2019 06:00:00 15,6 15,3 5 3 - - O 1015,2 10 0
24.05.2019 05:00:00 16,0 15,7 5 3 - - ONO 1015,2 10 -
24.05.2019 04:00:00 16,0 15,5 11 6 - - NNO 1015,9 10 -
24.05.2019 03:00:00 16,0 15,7 11 6 - - NO 1016,0 10 -
24.05.2019 02:00:00 16,0 15,7 9 5 - - ONO 1016,0 10 -
24.05.2019 01:00:00 16,0 15,8 9 5 - - ONO 1016,0 10 -
24.05.2019 00:00:00 16,0 15,8 9 5 - - O 1015,9 10 -
23.05.2019 23:00:00 16,0 15,7 11 6 - - O 1015,9 10 -
23.05.2019 22:00:00 16,0 15,5 11 6 - - O 1015,8 10 -
23.05.2019 21:00:00 16,2 15,7 9 5 - - OSO 1015,7 10 -
23.05.2019 20:00:00 17,2 15,9 9 5 - - O 1015,7 10 12
23.05.2019 19:00:00 19,0 17,7 11 6 - - O 1015,6 10 60
23.05.2019 18:00:00 19,8 17,8 11 6 - - O 1015,6 10 60
23.05.2019 17:00:00 20,2 18,2 8 4 - - O 1015,6 15 60
23.05.2019 16:00:00 20,0 17,2 8 4 - - O 1016,2 15 60
23.05.2019 15:00:00 - - - - - - - - - -
23.05.2019 14:00:00 19,4 16,8 16 9 - - OSO 1016,7 25 60
23.05.2019 13:00:00 19,6 17,0 18 10 - - OSO 1016,9 10 60
23.05.2019 12:00:00 19,4 17,0 13 7 20 11 OSO 1017,3 15 60
23.05.2019 11:00:00 19,0 15,9 8 4 - - O 1017,3 15 60
23.05.2019 10:00:00 18,6 16,2 8 4 - - OSO 1016,8 15 60
23.05.2019 09:00:00 17,0 15,0 4 2 - - N 1016,9 10 -
23.05.2019 08:00:00 14,6 13,3 4 2 - - N 1016,6 10 24
23.05.2019 07:00:00 15,4 14,4 9 5 - - ONO 1016,2 10 30
23.05.2019 06:00:00 15,4 14,6 9 5 - - ONO 1016,4 10 -
23.05.2019 05:00:00 15,2 14,4 9 5 - - NNO 1016,6 10 -
23.05.2019 04:00:00 15,0 14,4 8 4 - - NO 1016,9 10 -
23.05.2019 03:00:00 15,2 14,7 13 7 - - NO 1017,0 10 -
23.05.2019 02:00:00 15,6 15,0 13 7 - - ONO 1017,0 10 -
23.05.2019 01:00:00 - - - - - - - - - -
23.05.2019 00:00:00 15,6 15,0 15 8 - - NNO 1016,9 10 -
22.05.2019 23:00:00 15,8 14,8 5 3 - - NO 1016,9 10 -
22.05.2019 22:00:00 16,0 15,2 11 6 - - ONO 1016,6 10 -
22.05.2019 21:00:00 16,6 15,0 11 6 - - NO 1016,3 10 -
22.05.2019 20:00:00 17,0 14,8 11 6 - - ONO 1015,8 10 30
22.05.2019 19:00:00 17,6 15,0 11 6 - - O 1015,8 15 60
22.05.2019 18:00:00 19,8 15,3 8 4 - - O 1016,2 10 60
22.05.2019 17:00:00 20,0 17,2 9 5 - - O 1016,6 10 -
22.05.2019 16:00:00 20,2 18,3 11 6 20 11 O 1016,6 10 48
22.05.2019 15:00:00 19,8 17,2 11 6 - - O 1016,7 10 60
22.05.2019 14:00:00 19,0 17,0 5 3 - - NO 1016,9 10 60
22.05.2019 13:00:00 19,0 16,4 8 4 - - N 1016,6 10 30
22.05.2019 12:00:00 20,6 17,0 4 2 - - N 1017,0 10 30
22.05.2019 11:00:00 19,8 16,8 4 2 - - N 1016,8 10 60
22.05.2019 10:00:00 18,0 16,0 9 5 19 10 E 1016,7 10 60
22.05.2019 09:00:00 17,4 15,7 13 7 - - E 1016,1 10 48
22.05.2019 08:00:00 16,4 15,8 13 7 - - E 1015,9 10 0
22.05.2019 07:00:00 15,4 14,9 5 3 - - SE 1015,8 10 -
22.05.2019 06:00:00 15,0 14,4 8 4 - - SSE 1016,2 10 -
22.05.2019 05:00:00 15,0 14,4 9 5 - - S 1016,8 10 -
22.05.2019 04:00:00 15,0 14,4 9 5 - - SSE 1016,7 10 -
22.05.2019 03:00:00 15,2 14,6 9 5 - - SSE 1017,0 10 -
22.05.2019 02:00:00 15,4 14,9 11 6 - - SSE 1017,2 10 -
22.05.2019 01:00:00 15,0 14,5 9 5 - - S 1017,4 20 -
22.05.2019 00:00:00 15,2 14,7 13 7 - - S 1017,1 20 -
21.05.2019 23:00:00 15,4 15,1 13 7 - - S 1017,1 20 -
21.05.2019 22:00:00 15,4 14,3 13 7 - - S 1016,1 20 -
21.05.2019 21:00:00 16,0 15,0 11 6 - - S 1015,8 20 -
21.05.2019 20:00:00 17,0 15,9 9 5 - - SSE 1015,6 20 0
21.05.2019 19:00:00 17,8 16,5 8 4 18 10 S 1015,9 20 30
21.05.2019 18:00:00 17,8 16,1 4 2 15 8 N 1016,0 20 30
21.05.2019 17:00:00 19,0 17,0 8 4 - - N 1016,0 20 60
21.05.2019 16:00:00 19,4 17,4 4 2 18 10 N 1015,8 20 36
21.05.2019 15:00:00 19,4 17,4 15 8 - - O 1015,9 20 60
21.05.2019 14:00:00 19,2 17,2 9 5 - - OSO 1015,5 20 60
21.05.2019 13:00:00 19,4 16,8 15 8 23 12 OSO 1014,6 30 60
21.05.2019 12:00:00 18,6 16,2 18 10 28 15 O 1014,4 20 60
21.05.2019 11:00:00 17,6 15,8 22 12 - - OSO 1014,0 20 60
21.05.2019 10:00:00 17,8 15,6 16 9 29 15 OSO 1013,4 20 60
21.05.2019 09:00:00 17,2 14,7 13 7 - - N 1012,7 20 60
21.05.2019 08:00:00 15,8 13,7 15 8 - - O 1012,4 20 0
21.05.2019 07:00:00 15,6 13,8 4 2 25 14 N 1012,0 20 0
21.05.2019 06:00:00 15,4 13,8 13 7 - - N 1011,8 20 -
21.05.2019 05:00:00 15,6 13,6 4 2 - - N 1011,8 20 -
21.05.2019 04:00:00 15,8 13,5 4 2 38 21 N 1011,7 20 -
21.05.2019 03:00:00 15,6 14,1 21 11 - - N 1011,8 20 -
21.05.2019 02:00:00 15,6 15,3 26 14 - - OSO 1012,1 20 -
21.05.2019 01:00:00 14,8 14,8 16 9 - - S 1012,4 20 -
21.05.2019 00:00:00 14,2 13,4 15 8 - - S 1012,5 20 -
20.05.2019 23:00:00 14,4 14,1 11 6 - - S 1012,3 20 -
20.05.2019 22:00:00 15,4 13,8 4 2 29 16 N 1011,6 20 -
20.05.2019 21:00:00 15,4 13,9 9 5 - - O 1011,2 20 -
20.05.2019 20:00:00 16,0 14,7 13 7 - - O 1010,7 20 0
20.05.2019 19:00:00 17,0 14,1 9 5 19 11 N 1010,6 20 30
20.05.2019 18:00:00 17,6 14,7 11 6 - - N 1010,6 20 60
20.05.2019 17:00:00 18,0 14,7 13 7 - - SO 1010,5 20 48
20.05.2019 16:00:00 18,2 15,3 13 7 25 14 OSO 1010,5 20 60
20.05.2019 15:00:00 18,2 14,9 21 11 31 17 OSO 1010,5 20 12
20.05.2019 14:00:00 18,0 13,5 13 7 - - OSO 1010,3 20 60
20.05.2019 13:00:00 17,2 13,1 11 6 - - N 1010,1 20 24
20.05.2019 12:00:00 17,8 15,4 22 12 36 19 SSO 1009,7 20 24
20.05.2019 11:00:00 17,8 16,0 16 9 - - S 1009,0 20 60
20.05.2019 10:00:00 17,4 15,6 4 2 26 14 N 1008,6 20 11
20.05.2019 09:00:00 17,2 15,4 5 3 - - OSO 1007,9 20 54
20.05.2019 08:00:00 17,0 16,0 4 2 - - N 1007,7 20 42
20.05.2019 07:00:00 14,6 14,0 8 4 - - S 1007,6 20 -
20.05.2019 06:00:00 14,6 14,3 4 2 - - N 1007,4 20 -
20.05.2019 05:00:00 14,6 14,1 5 3 - - SO 1007,6 20 -
20.05.2019 04:00:00 14,4 13,4 8 4 - - O 1007,7 20 -
20.05.2019 03:00:00 15,0 14,2 4 2 - - N 1007,9 20 -
20.05.2019 02:00:00 15,0 14,7 8 4 - - N 1007,8 20 -
20.05.2019 01:00:00 16,2 15,7 15 8 22 12 OSO 1007,7 20 -
20.05.2019 00:00:00 15,0 14,8 11 6 - - SO 1007,8 20 -
19.05.2019 23:00:00 15,2 14,9 21 11 - - SSO 1007,8 20 -
19.05.2019 22:00:00 15,2 14,6 18 10 - - SSO 1007,7 20 -
19.05.2019 21:00:00 15,4 14,6 16 9 - - SSO 1007,5 20 -
19.05.2019 20:00:00 16,4 14,6 16 9 - - OSO 1006,7 20 36
19.05.2019 19:00:00 16,6 13,3 24 13 36 20 OSO 1006,6 20 42
19.05.2019 18:00:00 18,6 12,6 16 9 31 17 O 1006,3 10 60
19.05.2019 17:00:00 18,8 13,7 15 8 - - O 1006,1 10 60
19.05.2019 16:00:00 18,6 13,3 16 9 - - O 1005,3 10 60
19.05.2019 15:00:00 17,8 14,9 16 9 - - N 1005,5 10 60
19.05.2019 14:00:00 17,4 15,0 18 10 - - N 1005,3 10 60
19.05.2019 13:00:00 17,4 15,0 4 2 33 18 N 1005,2 10 24
19.05.2019 12:00:00 16,8 14,8 4 2 27 15 N 1004,8 10 0
19.05.2019 11:00:00 16,4 14,8 13 7 - - N 1004,7 10 24
19.05.2019 10:00:00 16,0 14,7 13 7 - - O 1004,6 10 12
19.05.2019 09:00:00 15,0 14,2 11 6 24 13 O 1003,8 10 0
19.05.2019 08:00:00 15,0 14,7 8 4 - - O 1003,8 10 0

tt = Temperatura
td = dewpoint
ff = velocità del vento
fx = gusts
dd = direzione del vento
ppp = reduced air pressure
vv = visibility
sd = ore di luce

Stazioni seguenti

WeatherPro
AMSI
MeteoEarth